Погода в Дубенках

Россия / Республика Мордовия     54°25′55″N   46°17′59″E
темп.,
°C
ветер,
м/с
пор.,
м/с
влажн.,
%
обл.,
%
осадки,
мм/ч
давл.,
гПа
погр.,
м
24 мая, вт
вт2400:000юз228851 0.0 100410
03:000ююз4129227 0.0 1003252
06:00+4зюз6128399 0.1 1003525
09:00+8зсз5859100 0.1 10041115
12:00+9з465696 0.0 10041577
15:00+7сз6681100 0.2 1006719
18:00+5сз2490100 0.3 1007593
21:00+4з3593100 0.5 1008357
25 мая, ср
ср2500:00+2зсз2396100 0.1 1008170
03:00+2сз369493 0.3 1009297
06:00+3сз468557 0.0 1010370
09:00+6сз456893 0.1 10101259
12:00+8сз566097 0.5 10111622
15:00+8зсз6762100 1.2 10121368
18:00+8зсз587096 0.3 10131024
21:00+3з35845 0.3 101477
26 мая, чт
чт2600:00+2з35905 0.0 101483
03:00+1зюз36917 0.0 1014100
06:00+4зюз47795 0.0 1014247
09:00+9юз676843 0.0 10131221
12:00+8юз6973100 0.3 10131015
15:00+11юз61073100 0.4 10121366
18:00+13ююз597613 0.1 1009758
21:00+10ю41389100 0.3 1008345
27 мая, пт
пт2700:00+10ю3797100 0.9 1007227
03:00+9ююв61596100 2.8 1004713
06:00+10ююз71396100 1.9 1000949
09:00+10юз91494100 3.9 1000869
12:00+10зюз71391100 0.8 1001743
15:00+10зюз61294100 3.4 1002640
18:00+13зюз6108525 0.4 1002877
21:00+9зюз61394100 1.0 1005485
28 мая, сб
сб2800:00+8зюз6129624 0.0 1006403
03:00+7юз41096100 0.0 1007238
06:00+9ююз41092100 0.0 1007312
09:00+13ююз71376100 0.0 10061001
12:00+14ююз71578100 0.3 10041244
15:00+13зюз71392100 2.8 1004745
18:00+12юз6129396 0.9 1005706
21:00+11юз51294100 0.9 1008469